TITAN 3C TRANSTAGE DEB, 43455

Orbit data source: Space-Track

TITAN 3C TRANSTAGE DEB, 43455 is space debris in GEO originally from a launch on Sun, 09 Feb 1969 UTC launched from the Air Force Eastern Test Range (AFETR). Debris objects in space refer to the collection of defunct objects orbiting the Earth. Examples of debris include non-operational satellites, rocket bodies, and fragments generated from explosions, collisions, or faulty payload assembly.

Not visible in the next 10 days
Identifier
43455, 1969-013N
Orbit
GEO
Country
Flag of USUS
Related business
Manufacturer
Martin Marietta
Mission
Spacecraft
Bus & Motor
Unknown
Mass
Unknown
Launch date (UTC)
1969-02-09 (57 years ago)
Launch vehicle
Unknown
Launch site
Air Force Eastern Test Range (AFETR)
Object type
Payload
Rocket body
Debris
Shape & HBR
Unknown shape, 1.1 m
Radar Cross Section
RCS unknown

Expand to show TLE details & history
Last TLE update: 1 month ago

TLE from 1 month ago
0 TITAN 3C TRANSTAGE DEB
1 43455U 69013N   25356.91010785 -.00000062  00000-0  00000-0 0  9991
2 43455   1.3685 153.3177 0269259  90.8547 271.5479  0.93997658 26693
Epoch: 2025-12-22T21:50Z
TLE epoch observation values (Epoch: 2025-12-22T21:50:33.318Z)
Latitude
-0°
Longitude
93.28017°
Altitude
37,647.663 km
Speed
3.009 km/s
True Right ascension
10h 10m 28s
True Declination
0° 00' 00"
Sunlit
Object was in daylight at epoch
Visualization orbit readout
Latitude
Unknown
Longitude
Unknown
Altitude
Unknown
Speed
Unknown
Apparent Right ascension
Unknown
Apparent Declination
Unknown
Sunlit
N/A
Visualization observer readout
Local Sidereal Time
14:33:23
Azimuth
Unknown
Elevation
Unknown
Doppler factor
Unknown
Orbital elements
Apogee altitude
38,828.937 km
Perigee altitude
36,458.287 km
Semi-major axis
44,021.749 km
Eccentricity
0.02693
Inclination
1.3685°
RAAN
153.3177°
Arg. of periapsis
90.8547°
True anomaly
268.46223°
Mean anomaly
271.5479°
Eccentric anomaly
270.00516°
Mean motion
0.23499 °/min
Orbital period
1,532.01 mins
BSTAR
0
Loading maneuver chart data...
Computing Atmospheric mass density...

Documentation

Showing up to 5 results
|